Augusta, ME

1:08 PM EST on December 16, 2017 (GMT -0500)
Augusta State

Weather History for KAUG - October, 2012

Change the Weather History Date:

Thursday, October 11, 2012

  Actual Average Record
Temperature  
Mean Temperature 47 °F 50 °F  
Max Temperature 53 °F 59 °F 74 °F (2003)
Min Temperature 42 °F 41 °F 26 °F (1993)
Degree Days  
Heating Degree Days 18 15  
Month to date heating degree days 145  
Since 1 July heating degree days 365  
Cooling Degree Days 0 0  
Month to date cooling degree days 0  
Year to date cooling degree days 387  
Moisture  
Dew Point 33 °F    
Average Humidity 58    
Maximum Humidity 83    
Minimum Humidity 35    
Precipitation  
Precipitation 0.00 in 0.14 in 0.79 in (1998)
Month to date precipitation 1.50  
Year to date precipitation 31.42  
Sea Level Pressure  
Sea Level Pressure 29.92 in    
Wind  
Wind Speed 8 mph (West)    
Max Wind Speed 21 mph    
Max Gust Speed 33 mph    
Visibility 10 miles    
Events      
T = Trace of Precipitation, MM = Missing Value Source: NWS Daily Summary

Daily Weather History Graph

Daily Weather History Graph

Search for Another Location

Airport or City:

Trip Planner

Search our weather history database for the weather conditions in past years. The results will help you decide how hot, cold, wet, or windy it might be!

Date:

Astronomy

Oct. 11, 2012 Rise Set
Actual Time 6:49 AM EDT 6:01 PM EDT
Civil Twilight 6:20 AM EDT 6:30 PM EDT
Nautical Twilight 5:46 AM EDT 7:03 PM EDT
Astronomical Twilight 5:13 AM EDT 7:37 PM EDT
Moon 2:15 AM EDT (10/11) 3:43 PM EDT (10/11)
Length of Visible Light 12h 09m
Length of Day
11h 11m
Waning Crescent, 18% of the Moon is Illuminated
Oct 11
Waning Crescent
Oct 15
New
Oct 21
First Quarter
Oct 29
Full
Nov 6
Last Quarter

Hourly Weather History & Observations

Time (EDT) Temp. Windchill Dew Point Humidity Pressure Visibility Wind Dir Wind Speed Gust Speed Precip Events Conditions
12:27 AM 50.0 °F - 44.6 °F 82% 29.67 in 10.0 mi WNW 5.8 mph - N/A   Overcast
12:53 AM 48.9 °F - 44.1 °F 83% 29.69 in 10.0 mi West 5.8 mph - N/A   Overcast
1:53 AM 48.0 °F - 41.0 °F 77% 29.70 in 10.0 mi WNW 5.8 mph - N/A   Overcast
2:53 AM 48.0 °F - 39.0 °F 71% 29.71 in 10.0 mi West 8.1 mph - N/A   Overcast
3:53 AM 46.0 °F 43.9 °F 39.0 °F 76% 29.73 in 10.0 mi West 4.6 mph - N/A   Overcast
4:53 AM 45.0 °F 41.2 °F 39.0 °F 80% 29.75 in 10.0 mi WSW 6.9 mph - N/A   Clear
5:53 AM 46.0 °F 41.0 °F 35.1 °F 66% 29.79 in 10.0 mi West 10.4 mph 20.7 mph N/A   Clear
6:53 AM 45.0 °F 40.1 °F 35.1 °F 68% 29.82 in 10.0 mi West 9.2 mph 25.3 mph N/A   Clear
7:53 AM 45.0 °F 41.8 °F 35.1 °F 68% 29.85 in 10.0 mi West 5.8 mph - N/A   Clear
8:53 AM 46.9 °F - 35.1 °F 63% 29.89 in 10.0 mi West 10.4 mph 20.7 mph N/A   Mostly Cloudy
9:53 AM 48.9 °F - 33.1 °F 54% 29.93 in 10.0 mi WNW 11.5 mph 19.6 mph N/A   Overcast
10:53 AM 48.9 °F - 28.0 °F 44% 29.96 in 10.0 mi WNW 16.1 mph 32.2 mph N/A   Clear
11:53 AM 50.0 °F - 28.0 °F 43% 29.99 in 10.0 mi WNW 16.1 mph 28.8 mph N/A   Scattered Clouds
12:53 PM 52.0 °F - 26.1 °F 37% 29.98 in 10.0 mi WNW 13.8 mph 31.1 mph N/A   Mostly Cloudy
1:53 PM 52.0 °F - 25.0 °F 35% 29.99 in 10.0 mi West 20.7 mph 33.4 mph N/A   Clear
2:53 PM 52.0 °F - 25.0 °F 35% 30.02 in 10.0 mi West 18.4 mph 29.9 mph N/A   Clear
3:53 PM 51.1 °F - 27.0 °F 39% 30.02 in 10.0 mi West 11.5 mph 17.3 mph N/A   Partly Cloudy
4:53 PM 52.0 °F - 27.0 °F 38% 30.03 in 10.0 mi WNW 6.9 mph - N/A   Partly Cloudy
5:53 PM 50.0 °F - 26.6 °F 40% 30.04 in 10.0 mi West 5.8 mph - N/A   Clear
6:53 PM 48.0 °F - 28.0 °F 46% 30.06 in 10.0 mi West 4.6 mph - N/A   Clear
7:53 PM 46.0 °F - 28.9 °F 51% 30.06 in 10.0 mi Calm Calm - N/A   Clear
8:53 PM 44.6 °F 41.4 °F 30.2 °F 57% 30.05 in 10.0 mi SSW 5.8 mph - N/A   Clear
9:53 PM 42.1 °F 38.4 °F 30.9 °F 65% 30.06 in 10.0 mi SSW 5.8 mph - N/A   Clear
10:53 PM 42.1 °F 38.4 °F 33.1 °F 70% 30.07 in 10.0 mi SSW 5.8 mph - N/A   Mostly Cloudy
11:53 PM 45.0 °F 43.5 °F 35.1 °F 68% 30.06 in 10.0 mi SSW 3.5 mph - N/A   Overcast